Regional Weather Roundup
Issued by NWS

Home | Current Version | Previous Version | Text Only | Print | Product List | Glossary On
Versions: 1 2 3 4 5 6 7 8 9 10 11 12 13 14 15 16 17 18 19 20 21 22 23 24 25 26 27
000
ASUS45 KBOU 201606
RWRCO

WEATHER ROUNDUP FOR COLORADO
NATIONAL WEATHER SERVICE DENVER/BOULDER CO
1000 AM MDT SUN APR 20 2014

NOTE: "FAIR" INDICATES FEW OR NO CLOUDS BELOW 12000 FEET WITH NO
SIGNIFICANT WEATHER AND/OR OBSTRUCTIONS TO VISIBILITY.

COZ001>005-013-030-031-201700-
...NORTHWEST COLORADO...

CITY           SKY/WX    TMP DP  RH WIND       PRES   REMARKS
CRAIG          SUNNY     55  39  54 NE6       30.17F
HAYDEN         SUNNY     50  37  62 E3        30.21S
MEEKER         SUNNY     52  38  58 CALM      30.18F
MOUNT WERNER   MOSUNNY   41  32  70 W8        30.33R
STEAMBOAT SPGS SUNNY     50  34  54 CALM      30.20S
WALDEN         SUNNY     45  34  65 SE6       30.23S
$$

COZ006>008-011-201700-
...WEST CENTRAL VALLEYS...

CITY           SKY/WX    TMP DP  RH WIND       PRES   REMARKS
GRAND JUNCTION SUNNY     57  41  55 S7        30.14S
MONTROSE       SUNNY     55  41  59 CALM      30.19S
EAGLE          PTSUNNY   48  39  71 CALM      30.23R
RIFLE          SUNNY     52  38  58 CALM      30.17F
DELTA          SUNNY     57  40  54 CALM      30.17S
NUCLA            N/A     52  39  62 CALM      30.22S
$$

COZ017>023-064>068-201700-
...SOUTHWEST COLORADO...

CITY           SKY/WX    TMP DP  RH WIND       PRES   REMARKS
DURANGO        SUNNY     53  35  50 S3        30.17R
CORTEZ         SUNNY     59  39  47 SE5       30.16F
PAGOSA SPRINGS SUNNY     49  33  54 CALM      30.19F
TELLURIDE      NOT AVBL
WOLF CREEK PAS PTSUNNY   32  25  74 N15G21    30.34R WCI  22
$$

COZ009-010-012-014-032>034-037-058>063-201700-
...CENTRAL COLORADO...

CITY           SKY/WX    TMP DP  RH WIND       PRES   REMARKS
ASPEN          PTSUNNY   51  35  54 N7        30.22R
BUENA VISTA    MOSUNNY   56  32  40 NW22      30.18F
COPPER MTN     PTSUNNY   34  30  86 W9        30.36S WCI  26
BERTHOUD PASS  HAZE      28  19  69 N5        30.38R VSB 1/4 WCI  23
COTTONWOOD PAS CLOUDY    50  30  46 S3        30.26R
GUNNISON       MOSUNNY   46  34  61 W6        30.25F
KREMMLING      CLOUDY    43  36  75 CALM      30.25S
LEADVILLE      MOSUNNY   42  28  57 N7        30.27S
MONARCH PASS   MOSUNNY   32  30  93 CALM      30.43S
SALIDA         MOSUNNY   50  39  65 CALM      30.26S
SUNLIGHT       PTSUNNY   39  34  81 CALM      30.35R
WILKERSON PASS MOSUNNY   36  30  80 NE6       30.33R
$$

COZ069>075-201700-
...SAN LUIS VALLEY/SANGRE DE CRISTO MOUNTAINS...

CITY           SKY/WX    TMP DP  RH WIND       PRES   REMARKS
ALAMOSA        CLOUDY    47  39  74 CALM      30.18R
LA VETA PASS   FOG       36  36 100 W5        30.25S VSB 1/4
SAGUACHE       MOSUNNY   55  32  41 NW15G24   30.19S
$$

COZ035-036-038>040-201700-
...NORTHERN COLORADO FRONT RANGE...

CITY           SKY/WX    TMP DP  RH WIND       PRES   REMARKS
DENVER INTL AP PTSUNNY   54  45  71 W7        30.09R
DMNS CITY PARK   N/A     58  40  52 SW2       30.08S
AURORA         PTSUNNY   55  41  58 W7        30.10R
FRONT RANGE AP NOT AVBL
ERIE MUNI ARPT PTSUNNY   57  43  59 CALM      30.08S
BOULDER MUN AP PTSUNNY   57  41  54 CALM      30.08R
CENTENNIAL     PTSUNNY   54  39  57 NW6       30.11R
BROOMFIELD     PTSUNNY   59  39  47 CALM      30.10
FORT COLLINS   MOSUNNY   57  43  58 S5        30.09S
LONGMONT       MOSUNNY   60  46  60 CALM      30.10R
$$

COZ041-046-047-076>085-087-088-201700-
...PIKES PEAK/PALMER DIVIDE AND SOUTHERN FOOTHILLS...

CITY           SKY/WX    TMP DP  RH WIND       PRES   REMARKS
COLO. SPRINGS  PTSUNNY   57  36  45 W3        30.11R
A. F. ACADEMY  PTSUNNY   57  34  42 N15       30.12R
ELLICOTT       NOT AVBL
FALCON         CLOUDY    57  34  42 N10       30.14R
FORT CARSON    PTSUNNY   59  37  43 N10       30.08S
LIMON          PTSUNNY   57  43  59 N12       30.08R
MONUMENT HILL  CLOUDY    50  36  57 NW10      30.14R
TRINIDAD       LGT RAIN  50  45  83 NW16      30.09R
$$

COZ042>045-048>051-090-091-201700-
...NORTHEAST COLORADO...

CITY           SKY/WX    TMP DP  RH WIND       PRES   REMARKS
GREELEY ARPT   MOSUNNY   57  45  62 W3        30.07S
AKRON          CLOUDY    59  42  53 CALM      30.05S
BURLINGTON     PTSUNNY   57  47  69 N13       30.02S
WRAY           PTSUNNY   57  48  72 NW3       30.03S
STERLING       CLOUDY    57  45  62 SW3       30.04R
HOLYOKE        PTSUNNY   64  46  52 CALM      30.03S
FORT MORGAN    PTSUNNY   58  43  58 CALM      30.07S
$$

COZ086-089-092>099-201700-
...SOUTHEAST COLORADO...

CITY           SKY/WX    TMP DP  RH WIND       PRES   REMARKS
PUEBLO         CLOUDY    61  41  47 S3        30.04S
LA JUNTA       CLOUDY    61  45  55 NW14      30.02R
LAMAR          PTSUNNY   57  46  66 N10       29.97R
SPRINGFIELD      N/A     65  46  50 W17       30.00R
$$



USA.gov is the U.S. government's official web portal to all federal, state and local government web resources and services.